Horseshoe Bay, TX

8:12 PM MST on December 11, 2017 (GMT -0700)
Horseshoe Bay

Weather History for KDZB - July, 2013

Change the Weather History Date:

Friday, July 26, 2013

  Actual Average (KBMQ) Record (KBMQ)
Temperature  
Mean Temperature 87 °F -  
Max Temperature 98 °F 92 °F 102 °F (2011)
Min Temperature 76 °F 71 °F 66 °F (2004)
Cooling Degree Days 22    
Growing Degree Days 37 (Base 50)    
Moisture  
Dew Point 66 °F    
Average Humidity 53    
Maximum Humidity 92    
Minimum Humidity 32    
Precipitation  
Precipitation 0.07 in - - ()
Sea Level Pressure  
Sea Level Pressure 29.97 in    
Wind  
Wind Speed 7 mph (South)    
Max Wind Speed 13 mph    
Max Gust Speed 20 mph    
Visibility 10 miles    
Events Rain , Thunderstorm    
Averages and records for this station are not official NWS values.
T = Trace of Precipitation, MM = Missing Value Source: NWS Daily Summary

Daily Weather History Graph

Daily Weather History Graph

Search for Another Location

Airport or City:

Trip Planner

Search our weather history database for the weather conditions in past years. The results will help you decide how hot, cold, wet, or windy it might be!

Date:

Astronomy

Jul. 26, 2013 Rise Set
Actual Time 5:48 AM MDT 7:31 PM MDT
Civil Twilight 5:21 AM MDT 7:57 PM MDT
Nautical Twilight 4:49 AM MDT 8:29 PM MDT
Astronomical Twilight 4:16 AM MDT 9:03 PM MDT
Moon 10:12 PM MDT (7/26) 10:02 AM MDT (7/26)
Length of Visible Light 14h 36m
Length of Day
13h 43m
Waning Gibbous, 79% of the Moon is Illuminated
Jul 26
Waning Gibbous
Jul 29
Last Quarter
Aug 6
New
Aug 14
First Quarter
Aug 20
Full

Hourly Weather History & Observations

Time (MDT) Temp. Heat Index Dew Point Humidity Pressure Visibility Wind Dir Wind Speed Gust Speed Precip Events Conditions
12:15 AM 82.2 °F 85.1 °F 68.2 °F 62% 30.02 in 10.0 mi South 9.2 mph 16.1 mph N/A   Clear
12:35 AM 81.7 °F 84.5 °F 68.0 °F 63% 30.01 in 10.0 mi South 11.5 mph 16.1 mph N/A   Clear
12:55 AM 81.1 °F 84.0 °F 68.2 °F 65% 30.01 in 10.0 mi South 10.4 mph 16.1 mph N/A   Clear
1:15 AM 80.6 °F 83.2 °F 68.0 °F 65% 30.01 in 10.0 mi South 12.7 mph 18.4 mph N/A   Clear
1:35 AM 80.2 °F 82.6 °F 67.1 °F 64% 30.01 in 10.0 mi South 12.7 mph 18.4 mph N/A   Clear
1:55 AM 79.7 °F - 66.4 °F 64% 30.01 in 10.0 mi South 10.4 mph 17.3 mph N/A   Clear
2:15 AM 79.5 °F - 66.0 °F 63% 30.00 in 10.0 mi South 10.4 mph 19.6 mph N/A   Clear
2:35 AM 79.0 °F - 65.7 °F 64% 30.00 in 10.0 mi South 11.5 mph 18.4 mph N/A   Clear
2:55 AM 78.8 °F - 65.8 °F 64% 30.00 in 10.0 mi SSW 6.9 mph - N/A   Clear
3:15 AM 78.1 °F - 66.2 °F 67% 30.01 in 10.0 mi Calm Calm - N/A   Clear
3:35 AM 77.5 °F - 66.4 °F 68% 30.01 in 10.0 mi Calm Calm - N/A   Clear
3:55 AM 77.2 °F - 66.6 °F 70% 30.00 in 10.0 mi South 4.6 mph - N/A   Clear
4:15 AM 77.0 °F - 66.6 °F 70% 30.00 in 10.0 mi South 4.6 mph - N/A   Clear
4:35 AM 77.0 °F - 66.6 °F 70% 30.00 in 10.0 mi South 5.8 mph - N/A   Clear
4:55 AM 76.8 °F - 66.4 °F 70% 30.00 in 10.0 mi South 4.6 mph - N/A   Clear
5:15 AM 76.6 °F - 66.6 °F 71% 30.01 in 10.0 mi South 6.9 mph - N/A   Clear
5:35 AM 76.8 °F - 66.9 °F 71% 30.01 in 10.0 mi South 4.6 mph - N/A   Clear
5:55 AM 76.6 °F - 67.1 °F 72% 30.02 in 10.0 mi Calm Calm - N/A   Clear
6:15 AM 76.6 °F - 67.5 °F 73% 30.02 in 10.0 mi South 3.5 mph - N/A   Clear
6:35 AM 77.0 °F - 68.0 °F 74% 30.02 in 10.0 mi South 5.8 mph - N/A   Clear
6:55 AM 76.8 °F - 68.2 °F 75% 30.01 in 10.0 mi South 5.8 mph - N/A   Clear
7:15 AM 78.1 °F - 68.5 °F 72% 30.03 in 10.0 mi Calm Calm - N/A   Clear
7:35 AM 79.0 °F - 68.5 °F 70% 30.03 in 10.0 mi Calm Calm - N/A   Clear
7:55 AM 79.5 °F - 68.5 °F 69% 30.03 in 10.0 mi Calm Calm - N/A   Clear
8:15 AM 80.6 °F 83.4 °F 68.4 °F 66% 30.03 in 10.0 mi SW 4.6 mph - N/A   Clear
8:35 AM 81.9 °F 84.6 °F 67.6 °F 62% 30.04 in 10.0 mi South 3.5 mph - N/A   Clear
8:55 AM 82.6 °F 85.3 °F 67.3 °F 60% 30.04 in 10.0 mi South 3.5 mph - N/A   Clear
9:15 AM 84.9 °F 87.6 °F 67.3 °F 55% 30.03 in 10.0 mi South 6.9 mph - N/A   Clear
9:35 AM 86.4 °F 88.4 °F 65.5 °F 50% 30.03 in 10.0 mi South 6.9 mph - N/A   Clear
9:55 AM 88.0 °F 90.0 °F 65.3 °F 47% 30.03 in 10.0 mi South 5.8 mph - N/A   Clear
10:15 AM 88.5 °F 90.8 °F 66.0 °F 47% 30.03 in 10.0 mi SSE 4.6 mph - N/A   Clear
10:35 AM 89.1 °F 91.3 °F 65.8 °F 46% 30.03 in 10.0 mi South 6.9 mph - N/A   Clear
10:55 AM 90.7 °F 92.8 °F 65.7 °F 43% 30.02 in 10.0 mi SSE 4.6 mph - N/A   Clear
11:15 AM 90.9 °F 93.1 °F 65.3 °F 43% 30.02 in 10.0 mi South 9.2 mph - N/A   Clear
11:35 AM 92.7 °F 95.3 °F 66.0 °F 41% 30.01 in 10.0 mi SSW 5.8 mph - N/A   Clear
11:55 AM 93.9 °F 96.5 °F 65.5 °F 39% 30.00 in 10.0 mi South 5.8 mph - N/A   Clear
12:15 PM 93.2 °F 95.8 °F 65.3 °F 40% 30.00 in 10.0 mi South 6.9 mph - N/A   Clear
12:35 PM 95.0 °F 97.9 °F 65.7 °F 38% 29.98 in 10.0 mi SSE 4.6 mph - N/A   Clear
12:55 PM 95.9 °F 99.0 °F 65.5 °F 37% 29.98 in 10.0 mi SSE 6.9 mph - N/A   Clear
1:15 PM 96.6 °F 99.2 °F 64.6 °F 35% 29.97 in 10.0 mi South 5.8 mph - N/A   Clear
1:35 PM 97.2 °F 100.2 °F 64.9 °F 35% 29.96 in 10.0 mi South 5.8 mph - N/A   Clear
1:55 PM 97.7 °F 100.0 °F 64.2 °F 33% 29.96 in 10.0 mi South 6.9 mph - N/A   Scattered Clouds
2:15 PM 97.5 °F 99.2 °F 63.5 °F 32% 29.95 in 10.0 mi SE 3.5 mph - N/A   Scattered Clouds
2:35 PM 98.2 °F 100.4 °F 63.7 °F 32% 29.94 in 10.0 mi SSW 4.6 mph 16.1 mph N/A   Scattered Clouds
2:55 PM 98.1 °F 100.1 °F 63.1 °F 32% 29.93 in 10.0 mi SSE 5.8 mph - N/A   Mostly Cloudy
3:15 PM 98.4 °F 100.7 °F 63.5 °F 32% 29.93 in 10.0 mi South 5.8 mph - N/A   Scattered Clouds
3:35 PM 97.9 °F 99.8 °F 63.1 °F 32% 29.92 in 10.0 mi SSE 9.2 mph - N/A   Scattered Clouds
3:55 PM 96.6 °F 98.2 °F 63.1 °F 33% 29.91 in 10.0 mi SSE 5.8 mph - N/A   Scattered Clouds
4:15 PM 97.5 °F 99.7 °F 63.9 °F 33% 29.91 in 10.0 mi SSE 8.1 mph - N/A   Mostly Cloudy
4:35 PM 95.9 °F 97.5 °F 63.5 °F 34% 29.90 in 10.0 mi SSE 8.1 mph - N/A   Scattered Clouds
4:55 PM 97.2 °F 99.1 °F 63.7 °F 33% 29.90 in 10.0 mi SSE 9.2 mph - N/A   Scattered Clouds
5:15 PM 96.3 °F 98.1 °F 63.3 °F 34% 29.89 in 10.0 mi SSE 10.4 mph - N/A   Scattered Clouds
5:35 PM 96.6 °F 98.2 °F 63.1 °F 33% 29.88 in 10.0 mi SSE 10.4 mph 16.1 mph N/A   Clear
5:55 PM 95.9 °F 97.5 °F 63.1 °F 34% 29.89 in 10.0 mi SSE 9.2 mph - N/A   Clear
6:15 PM 95.0 °F 96.0 °F 62.6 °F 34% 29.88 in 10.0 mi South 9.2 mph 17.3 mph N/A   Clear
6:35 PM 93.4 °F 93.9 °F 62.2 °F 35% 29.88 in 10.0 mi South 9.2 mph 17.3 mph N/A   Clear
6:55 PM 92.5 °F 93.3 °F 62.6 °F 37% 29.88 in 10.0 mi South 9.2 mph - N/A   Clear
7:15 PM 91.4 °F 91.7 °F 61.9 °F 37% 29.88 in 10.0 mi South 8.1 mph - N/A   Clear
7:35 PM 90.7 °F 91.3 °F 62.2 °F 39% 29.88 in 10.0 mi South 8.1 mph - N/A   Clear
7:55 PM 90.0 °F 90.6 °F 62.6 °F 40% 29.90 in 10.0 mi SSE 4.6 mph - N/A   Scattered Clouds
8:15 PM 89.8 °F 90.7 °F 63.1 °F 41% 29.90 in 10.0 mi South 5.8 mph - N/A   Scattered Clouds
8:35 PM 88.9 °F 90.0 °F 63.5 °F 43% 29.90 in 10.0 mi South 5.8 mph - N/A   Scattered Clouds
8:55 PM 88.7 °F 89.4 °F 63.1 °F 42% 29.90 in 10.0 mi South 5.8 mph - N/A   Scattered Clouds
9:15 PM 88.7 °F 89.1 °F 62.2 °F 41% 29.91 in 10.0 mi Calm Calm - N/A   Scattered Clouds
9:35 PM 88.5 °F 89.5 °F 63.3 °F 43% 29.94 in 10.0 mi North 4.6 mph - N/A Thunderstorm Mostly Cloudy
9:55 PM 88.7 °F 90.1 °F 64.4 °F 44% 29.95 in 10.0 mi NNE 5.8 mph - N/A   Overcast
10:15 PM 86.0 °F 89.4 °F 68.2 °F 55% 29.98 in 7.0 mi NNE 6.9 mph 19.6 mph 0.01 in Rain , Thunderstorm Heavy Thunderstorms and Rain
10:35 PM 77.7 °F - 71.6 °F 81% 29.96 in 7.0 mi Calm Calm - 0.06 in Rain , Thunderstorm Light Thunderstorms and Rain
10:55 PM 77.0 °F - 72.5 °F 86% 29.97 in 10.0 mi SSE 6.9 mph - 0.07 in Thunderstorm Mostly Cloudy
11:15 PM 76.6 °F - 72.7 °F 87% 29.97 in 7.0 mi ENE 3.5 mph - N/A Thunderstorm Mostly Cloudy
11:35 PM 77.0 °F - 74.5 °F 92% 29.99 in 10.0 mi Calm Calm - N/A Thunderstorm Overcast
11:55 PM 77.7 °F - 73.6 °F 87% 29.99 in 10.0 mi Calm Calm - N/A Thunderstorm Overcast